If you wish to contribute or participate in the discussions about articles you are invited to join SKYbrary as a registered user

 Actions

Arar Domestic Airport

From SKYbrary Wiki

OERR /
Revision as of 16:38, 17 September 2014 by Anonymous (talk) (Description)
Airport
ICAO: OERR
Summary
Name Arar Domestic Airport
Region Middle East
Territory Saudi Arabia SA.gif
Location Arar Domestic Airport
Serving
Coordinates 30° 54' 23.00" N, 41° 8' 17.00" E
Runways
Designator Length Width Surface ROPS
10/28 3050 m10,006.562 ft
45 m147.638 ft
ASP yes/yes


METAR
Observation OERR 040100Z 02003KT 3000 BR NSC 08/08 Q1019 NOSIG
Station Arar
Date/Time 04 December 2020 01:00:00
Wind direction 20°
Wind speed 03 kts
Lowest cloud amount nil significant cloud
Temperature 8°C
Dew point 8°C
Humidity 100%
QNH 1019 hPa
Weather condition n/a

Airport
ICAO: OERR
Summary
Name Arar Domestic Airport
Region "RAE" is not in the list (AFI, APAC, CARSAM, EUR, MID, NAM, NAT) of allowed values for the "ICAO Region" property.
Territory Saudi Arabia SA.gif
Location Arar Domestic Airport
Serving
Coordinates
Runways
Designator Length Width Surface ROPS
10/28 3050 m10,006.562 ft
45 m147.638 ft
ASP yes/yes
10/28 3050 m10,006.562 ft
45 m147.638 ft
ASP yes/yes


METAR
Observation OERR 040100Z 02003KT 3000 BR NSC 08/08 Q1019 NOSIG
Station Arar
Date/Time 04 December 2020 01:00:00
Wind direction 20°
Wind speed 03 kts
Lowest cloud amount nil significant cloud
Temperature 8°C
Dew point 8°C
Humidity 100%
QNH 1019 hPa
Weather condition n/a

Arar Domestic Airport

ICAO: OERR IATA: RAE

Description

Al Wajh Domestic Airport is located 10 km5.4 nm
10,000 m
32,808.399 ft
south of Arar, Saudi Arabia.

Climatology

Hot Desert Climate (Köppen climate classification BWh) - Hot desert climates are typically found in the subtropics where there is unbroken sunshine for the whole year due to the stable descending air and high pressure, little or no precipitation. Maximum temperatures of 40°C to 45°C are not uncommon, particularly during the warmer months of the year. During colder periods of the year, night-time temperatures can drop to freezing or below due to the exceptional radiation loss under the clear skies. However, very rarely do temperatures drop far below freezing.

Maps

Terrain

Loading map...

Airport Layout

Loading map...


Accidents & Serious Incidents at or in vicinity of OERR

None on SKYbrary